Regional Weather Roundup
Issued by NWS

Home | Current Version | Previous Version | Graphics & Text | Print | Product List | Glossary On
Versions: 1 2 3 4 5 6 7 8 9 10 11 12 13 14 15 16 17 18 19 20 21 22 23 24 25 26 27 28 29 30 31 32 33 34 35 36 37 38 39 40 41 42 43 44 45 46 47 48 49 50
839
ASUS45 KBOU 170407
RWRCO

WEATHER ROUNDUP FOR COLORADO
NATIONAL WEATHER SERVICE DENVER/BOULDER CO
1000 PM MDT MON OCT 16 2017

NOTE: "FAIR" INDICATES FEW OR NO CLOUDS BELOW 12000 FEET WITH NO
SIGNIFICANT WEATHER AND/OR OBSTRUCTIONS TO VISIBILITY.

COZ001>005-013-030-031-170500-
...NORTHWEST COLORADO...

CITY           SKY/WX    TMP DP  RH WIND       PRES   REMARKS
CRAIG          FAIR      32  16  51 CALM      30.38R
HAYDEN         FAIR      42   7  23 CALM      30.40R
MEEKER         FAIR      36  16  44 E6        30.40R
RABBIT EARS PA FAIR      36  -4  18 W8        30.55S
STEAMBOAT SPGS FAIR      39  10  29 E8        30.41R
WALDEN         FAIR      36   1  23 SE8       30.45R
$$

COZ006>008-011-170500-
...WEST CENTRAL VALLEYS...

CITY           SKY/WX    TMP DP  RH WIND       PRES   REMARKS
GRAND JUNCTION FAIR      43  10  26 E5        30.35R
MONTROSE       FAIR      42  16  34 SE8       30.41S
EAGLE          FAIR      40   9  28 SE6       30.45R
RIFLE          FAIR      45  11  25 SE7       30.38R
DELTA          FAIR      46  16  30 CALM      30.38R
NUCLA          FAIR      46   7  19 E13       30.42R
$$

COZ017>023-064>068-170500-
...SOUTHWEST COLORADO...

CITY           SKY/WX    TMP DP  RH WIND       PRES   REMARKS
DURANGO        FAIR      43  16  33 N6        30.41R
CORTEZ         FAIR      39  17  41 E6        30.38S
PAGOSA SPRINGS FAIR      42  12  29 CALM      30.48R
TELLURIDE      NOT AVBL
WOLF CREEK PAS NOT AVBL
$$

COZ009-010-012-014-032>034-037-058>063-170500-
...CENTRAL COLORADO...

CITY           SKY/WX    TMP DP  RH WIND       PRES   REMARKS
ASPEN          FAIR      37  11  34 SW7       30.47S
BUENA VISTA    FAIR      43   2  17 NW5       30.45R
COPPER MTN     SNOW      34  14  44 W6        30.65R VSB 1/2 WCI  29
BERTHOUD PASS  FAIR      32  23  69 W30G36    30.63S WCI  18
COTTONWOOD PAS FAIR      52 -35   2 W7        30.54R
GUNNISON       FAIR      38   2  22 CALM      30.48R
KREMMLING      FAIR      37  14  38 CALM      30.46R
LEADVILLE      FAIR      35  -3  19 N8        30.54R WCI  29
MONARCH PASS   FAIR      36  -9  14 W28       30.74S
SALIDA         NOT AVBL
SUNLIGHT       FAIR      36  -6  17 W8        30.62S
WILKERSON PASS FAIR      43 -17   7 CALM      30.64S
$$

COZ069>075-170500-
...SAN LUIS VALLEY/SANGRE DE CRISTO MOUNTAINS...

CITY           SKY/WX    TMP DP  RH WIND       PRES   REMARKS
ALAMOSA        FAIR      41  19  41 W8        30.42R
DEL NORTE      FAIR      44  14  30 W12       30.45S
LA VETA PASS   FAIR      45   9  23 S26G41    30.64S
SAGUACHE       FAIR      43   5  21 N8        30.45S
$$

COZ035-036-038>040-170500-
...NORTHERN COLORADO FRONT RANGE...

CITY           SKY/WX    TMP DP  RH WIND       PRES   REMARKS
DENVER INTL AP FAIR      54  19  25 SW10      30.26R
DMNS CITY PARK   N/A     53  20  28 SE8       30.27R
AURORA         PTCLDY    50  22  33 S9        30.29R
FRONT RANGE AP FAIR      61  16  17 SW7       30.28R
ERIE MUNI ARPT FAIR      50  20  30 S6        30.30S
BOULDER MUN AP FAIR      64  12  13 SW13      30.26S
CENTENNIAL     FAIR      48  23  37 SW7       30.29R
BROOMFIELD     CLEAR     59  12  15 W21       30.28R
FORT COLLINS   FAIR      48  26  42 S7        30.25R
LONGMONT       FAIR      46  24  42 CALM      30.27R
$$

COZ041-046-047-076>085-087-088-170500-
...PIKES PEAK/PALMER DIVIDE AND SOUTHERN FOOTHILLS...

CITY           SKY/WX    TMP DP  RH WIND       PRES   REMARKS
COLO. SPRINGS  FAIR      46  17  31 N9        30.32S
A. F. ACADEMY  FAIR      40  14  34 N10       30.33R
SCHRIEVER AFB  FAIR      54  12  19 N5        30.32R
CHEYENNE MTN   FAIR      57   6  13 W6        30.30R
ELLICOTT       FAIR     N/A N/A N/A CALM      30.30R
FALCON         FAIR      46  10  23 NW3       30.36R
FORT CARSON    FAIR      48  18  31 NW9       30.28S
LIMON          FAIR      35  24  64 N6        30.26S WCI  30
MONUMENT HILL  NOT AVBL
CANON CITY     CLEAR     54  12  19 MISG      30.26R
WALSENBURG     FAIR      55  12  18 W13       30.29S
TRINIDAD       FAIR      56  28  34 W16       30.26S
$$

COZ042>045-048>051-090-091-170500-
...NORTHEAST COLORADO...

CITY           SKY/WX    TMP DP  RH WIND       PRES   REMARKS
GREELEY ARPT   FAIR      45  29  53 SW5       30.25
AKRON          FAIR      47  21  35 NE10      30.22R
BURLINGTON     FAIR      45  31  58 W10       30.19S
WRAY           FAIR      46  28  49 CALM      30.17R
YUMA           FAIR      41  30  65 W3        30.19R
STERLING       FAIR      45  28  53 CALM      30.19S
HOLYOKE        FAIR      46  32  57 W6        30.18S
FORT MORGAN    FAIR      51  17  25 N14       30.23R
$$

COZ086-089-092>099-170500-
...SOUTHEAST COLORADO...

CITY           SKY/WX    TMP DP  RH WIND       PRES   REMARKS
PUEBLO         FAIR      53  21  28 N13       30.21R
LA JUNTA       FAIR      50  31  48 N9        30.18R
LAMAR          FAIR      47  33  58 N5        30.14R
SPRINGFIELD      N/A     50  36  58 SW7       30.21S
$$




USA.gov is the U.S. government's official web portal to all federal, state and local government web resources and services.